Regional Weather Roundup
Issued by NWS

Home | Current Version | Previous Version | Text Only | Print | Product List | Glossary Off
Versions: 1 2 3 4 5 6 7 8 9 10 11 12 13 14 15 16 17 18 19 20 21 22 23 24 25 26 27 28 29 30 31 32 33 34 35 36 37 38 39 40 41 42 43 44 45 46 47 48 49 50

000
ASUS43 KFSD 040010
RWRSD

WEATHER ROUNDUP FOR SOUTH DAKOTA
NATIONAL WEATHER SERVICE SIOUX FALLS SD
700 PM CDT TUE MAY 03 2016

NOTE: "FAIR" INDICATES FEW OR NO CLOUDS BELOW 12,000 FEET WITH NO
SIGNIFICANT WEATHER AND/OR OBSTRUCTIONS TO VISIBILITY.


SDZ001>005-009-010-012>017-040100-
NORTHWEST AND NORTH CENTRAL SOUTH DAKOTA

CITY           SKY/WX    TMP DP  RH WIND       PRES   REMARKS
BUFFALO          N/A     76  33  21 N14       30.01S
FAITH            N/A     74  37  26 N15       30.01F
MOBRIDGE       SUNNY     76  40  27 N16G26    29.93R
$$

SDZ012>016-024>037-041>051-057-063-072>074-040100-
SOUTHWEST AND SOUTH CENTRAL SOUTH DAKOTA

CITY           SKY/WX    TMP DP  RH WIND       PRES   REMARKS
RAPID CTY ARPT SUNNY     72  38  29 N20       30.07S
PIERRE         SUNNY     75  41  29 N15G25    29.93R
CUSTER         PTSUNNY   63  35  35 MISG      30.16S
ELLSWORTH AFB  SUNNY     73  37  26 N17       30.07S
PHILIP         SUNNY     75  40  28 N12       30.00S
PINE RIDGE     SUNNY     70  36  28 N14       30.08R
WINNER         FAIR      73  43  33 NW13      29.96F
$$

SDZ004>011-016>023-039-040-040100-
NORTHEAST SOUTH DAKOTA

CITY           SKY/WX    TMP DP  RH WIND       PRES   REMARKS
ABERDEEN       SUNNY     70  27  20 N22G32    29.90S
WATERTOWN      SUNNY     67  27  22 N25G32    29.86R
BROOKINGS      SUNNY     70  35  27 N23G29    29.82R
SISSETON         N/A     68  25  19 N29G36    29.85R
$$

SDZ017-020-022-023-036>040-048>070-040100-
SOUTHEAST SOUTH DAKOTA

CITY           SKY/WX    TMP DP  RH WIND       PRES   REMARKS
SIOUX FALLS    MOSUNNY   71  42  35 W16G23    29.80F
HURON          SUNNY     72  36  26 N17G33    29.87R
CHAMBERLAIN    SUNNY     75  44  32 NW16G22   29.92S
MITCHELL       MOSUNNY   74  44  34 NW15      29.85F
YANKTON        SUNNY     70  46  43 W14       29.86F
$$

ABBREVIATIONS USED IN REMARKS
   TC - TEMPERATURE IN CELSIUS
  WCI - WIND CHILL INDEX
   HX - HEAT INDEX
  VSB - VISIBILITY




USA.gov is the U.S. government's official web portal to all federal, state and local government web resources and services.